Вернуться в каталог

STARLINK-5275

АктивенСвязьVLEO
NORAD 55398·PAYLOAD·🇺🇸 United States

Запущен Jan 31, 2023 с Vandenberg Space Force Base

Loading…

Ближайшие Пролёты (ближайшие 24 часа)

TLE

СвежийSource: CelesTrak SupGP

Эпоха: Sep 14, 2026, 22:28 UTC

1 55398C 23014H   26257.93659722  .00042628  00000+0  35734-2 0  2577
2 55398  69.9999 307.2609 0003681 267.5958  94.8189 14.98297465    15

Отслеживайте STARLINK-5275 в реальном времени с AllMySat

Download on the App Store